Charleston, SC

9:36 PM EDT on July 23, 2017 (GMT -0400)
Charleston Air Force Base-International

Weather History for KCHS - February, 2014

Change the Weather History Date:

Friday, February 28, 2014

  Actual Average Record
Temperature  
Mean Temperature 45 °F 54 °F  
Max Temperature 58 °F 66 °F 86 °F (1962)
Min Temperature 32 °F 43 °F 21 °F (2002)
Degree Days  
Heating Degree Days 20 11  
Month to date heating degree days 325 378  
Since 1 July heating degree days 1523 1636  
Cooling Degree Days 0 0  
Month to date cooling degree days 8 5  
Year to date cooling degree days 10 7  
Moisture  
Dew Point 33 °F    
Average Humidity 62    
Maximum Humidity 82    
Minimum Humidity 41    
Precipitation  
Precipitation 0.00 in 0.10 in 2.27 in (1966)
Month to date precipitation 2.18 2.96  
Year to date precipitation 4.85 6.67  
Sea Level Pressure  
Sea Level Pressure 30.13 in    
Wind  
Wind Speed 9 mph (NE)    
Max Wind Speed 16 mph    
Max Gust Speed 21 mph    
Visibility 10 miles    
Events      
T = Trace of Precipitation, MM = Missing Value Source: NWS Daily Summary

Daily Weather History Graph

Daily Weather History Graph

Search for Another Location

Airport or City:

Trip Planner

Search our weather history database for the weather conditions in past years. The results will help you decide how hot, cold, wet, or windy it might be!

Date:

Astronomy

Feb. 28, 2014 Rise Set
Actual Time 6:49 AM EST 6:16 PM EST
Civil Twilight 6:24 AM EST 6:41 PM EST
Nautical Twilight 5:55 AM EST 7:10 PM EST
Astronomical Twilight 5:27 AM EST 7:38 PM EST
Moon 6:02 AM EST (2/28) 5:50 PM EST (2/28)
Length of Visible Light 12h 16m
Length of Day
11h 27m
Waning Crescent, 1% of the Moon is Illuminated
Feb 28
Waning Crescent
Mar 1
New
Mar 8
First Quarter
Mar 16
Full
Mar 23
Last Quarter

Hourly Weather History & Observations

Time (EST) Temp. Windchill Dew Point Humidity Pressure Visibility Wind Dir Wind Speed Gust Speed Precip Events Conditions
12:56 AM 41.0 °F 39.0 °F 28.9 °F 62% 29.98 in 10.0 mi WNW 3.5 mph - N/A   Clear
1:56 AM 37.0 °F 33.3 °F 28.0 °F 70% 29.99 in 10.0 mi NW 4.6 mph - N/A   Clear
2:56 AM 35.1 °F 32.2 °F 28.9 °F 78% 29.99 in 10.0 mi NW 3.5 mph - N/A   Clear
3:56 AM 34.0 °F 28.0 °F 28.0 °F 79% 30.00 in 10.0 mi NNW 6.9 mph - N/A   Clear
4:56 AM 33.1 °F 28.7 °F 26.1 °F 75% 30.02 in 10.0 mi NNW 4.6 mph - N/A   Clear
5:56 AM 37.9 °F 30.0 °F 28.9 °F 70% 30.06 in 10.0 mi NNE 12.7 mph - N/A   Clear
6:56 AM 37.9 °F 30.0 °F 27.0 °F 65% 30.09 in 10.0 mi NE 12.7 mph - N/A   Clear
7:56 AM 39.9 °F 32.9 °F 26.1 °F 58% 30.10 in 10.0 mi NE 11.5 mph - N/A   Clear
8:56 AM 45.0 °F 40.1 °F 26.1 °F 48% 30.14 in 10.0 mi NE 9.2 mph - N/A   Clear
9:56 AM 48.9 °F - 28.9 °F 46% 30.16 in 10.0 mi ENE 10.4 mph - N/A   Clear
10:56 AM 53.1 °F - 30.0 °F 41% 30.17 in 10.0 mi NNE 12.7 mph - N/A   Scattered Clouds
11:38 AM 51.8 °F - 30.2 °F 44% 30.18 in 10.0 mi North 8.1 mph - N/A   Mostly Cloudy
11:56 AM 53.1 °F - 30.9 °F 43% 30.19 in 10.0 mi North 10.4 mph - N/A   Mostly Cloudy
12:48 PM 53.6 °F - 32.0 °F 44% 30.17 in 10.0 mi NNE 9.2 mph - N/A   Mostly Cloudy
12:56 PM 54.0 °F - 33.1 °F 45% 30.17 in 10.0 mi North 10.4 mph - N/A   Mostly Cloudy
1:56 PM 57.0 °F - 35.1 °F 44% 30.15 in 10.0 mi NE 9.2 mph - N/A   Mostly Cloudy
2:56 PM 57.0 °F - 37.0 °F 47% 30.15 in 10.0 mi ENE 9.2 mph - N/A   Mostly Cloudy
3:56 PM 57.0 °F - 37.9 °F 49% 30.14 in 10.0 mi East 11.5 mph - N/A   Scattered Clouds
4:56 PM 57.0 °F - 39.0 °F 51% 30.15 in 10.0 mi ENE 11.5 mph - N/A   Partly Cloudy
5:56 PM 53.1 °F - 39.0 °F 59% 30.17 in 10.0 mi ENE 10.4 mph - N/A   Partly Cloudy
6:56 PM 50.0 °F - 39.0 °F 66% 30.19 in 10.0 mi East 12.7 mph - N/A   Partly Cloudy
7:56 PM 48.9 °F - 37.0 °F 64% 30.20 in 10.0 mi East 8.1 mph - N/A   Partly Cloudy
8:56 PM 46.9 °F - 37.0 °F 68% 30.21 in 10.0 mi ENE 4.6 mph - N/A   Scattered Clouds
9:04 PM 46.4 °F 43.5 °F 37.4 °F 71% 30.21 in 10.0 mi ENE 5.8 mph - N/A   Mostly Cloudy
9:56 PM 50.0 °F - 37.9 °F 63% 30.21 in 10.0 mi East 8.1 mph - N/A   Overcast
10:56 PM 48.9 °F - 37.9 °F 66% 30.21 in 10.0 mi East 6.9 mph - N/A   Mostly Cloudy
11:56 PM 50.0 °F - 39.0 °F 66% 30.22 in 10.0 mi ENE 6.9 mph - N/A   Mostly Cloudy